OK2ZA-6 Weather Reports


time (UTC)temp
F
wind
direction
speed
knots
gust
knots
rain 1hr
in
rain 24hr
in
rain mn
in
humidity
%
barometer
mb
20260505095004 65 131 6.1 12.2 0.00 0.00 0.00 57 1008.6
20260505094004 64 130 7.0 10.4 0.00 0.00 0.00 57 1008.7
20260505093004 64 128 7.0 12.2 0.00 0.00 0.00 58 1008.7
20260505092004 63 139 7.0 11.3 0.00 0.00 0.00 56 1008.8
20260505091004 63 107 7.0 13.0 0.00 0.00 0.00 56 1008.8
20260505090004 62 108 6.1 12.2 0.00 0.00 0.00 57 1008.9
20260505085004 62 127 6.1 11.3 0.00 0.00 0.00 56 1009.1
20260505084004 61 125 5.2 10.4 0.00 0.00 0.00 58 1009.1
20260505083004 60 101 6.1 9.6 0.00 0.00 0.00 60 1009.1
20260505082003 60 92 5.2 9.6 0.00 0.00 0.00 57 1009.1
20260505081003 60 102 5.2 9.6 0.00 0.00 0.00 57 1009.1
20260505080004 60 97 5.2 9.6 0.00 0.00 0.00 57 1009.1
20260505075004 59 97 4.3 9.6 0.00 0.00 0.00 57 1009.1
20260505074004 59 124 6.1 11.3 0.00 0.00 0.00 57 1009.1
20260505073004 59 99 6.1 9.6 0.00 0.00 0.00 58 1009.2
20260505072004 58 90 6.1 9.6 0.00 0.00 0.00 58 1009.3
20260505071003 58 126 5.2 9.6 0.00 0.00 0.00 59 1009.2
20260505070004 58 123 5.2 9.6 0.00 0.00 0.00 59 1009.3
20260505065004 57 108 6.1 9.6 0.00 0.00 0.00 58 1009.3
20260505064003 57 121 5.2 8.7 0.00 0.00 0.00 58 1009.4
20260505063004 57 123 5.2 9.6 0.00 0.00 0.00 57 1009.5
20260505062004 57 113 5.2 10.4 0.00 0.00 0.00 57 1009.5
20260505061003 57 121 4.3 8.7 0.00 0.00 0.00 56 1009.5
20260505060004 57 109 5.2 10.4 0.00 0.00 0.00 55 1009.4
20260505055004 57 94 4.3 8.7 0.00 0.00 0.00 55 1009.2
20260505054004 57 90 5.2 9.6 0.00 0.00 0.00 54 1009.1
20260505053004 57 95 5.2 11.3 0.00 0.00 0.00 55 1009.1
20260505052004 56 94 4.3 8.7 0.00 0.00 0.00 54 1009.2
20260505051003 56 89 4.3 8.7 0.00 0.00 0.00 55 1009.1
20260505041004 53 62 4.3 9.6 0.00 0.00 0.00 58 1009.1
20260505040004 53 65 4.3 7.8 0.00 0.00 0.00 58 1009.2
20260505035003 54 63 3.5 7.0 0.00 0.00 0.00 58 1009.3
20260505034003 54 66 2.6 5.2 0.00 0.00 0.00 57 1009.3
20260505033003 54 61 2.6 7.0 0.00 0.00 0.00 57 1009.3
20260505032003 54 69 3.5 7.8 0.00 0.00 0.00 57 1009.3
20260505031003 55 74 3.5 7.0 0.00 0.00 0.00 57 1009.3
20260505030004 55 71 2.6 6.1 0.00 0.00 0.00 57 1009.5
20260505025004 55 77 2.6 6.1 0.00 0.00 0.00 57 1009.6
20260505024004 55 71 2.6 6.1 0.00 0.00 0.00 56 1009.7
20260505023003 56 68 1.7 6.1 0.00 0.00 0.00 55 1009.9
20260505022003 56 77 1.7 7.0 0.00 0.00 0.00 54 1009.9
20260505021004 57 79 4.3 8.7 0.00 0.00 0.00 54 1009.9
20260505020004 57 82 3.5 7.8 0.00 0.00 0.00 53 1010.0
20260505015003 58 89 4.3 8.7 0.00 0.00 0.00 53 1010.0
20260505014004 58 85 5.2 11.3 0.00 0.00 0.00 53 1009.9
20260505013003 58 83 6.1 9.6 0.00 0.00 0.00 53 1009.9
20260505012003 58 83 6.1 10.4 0.00 0.00 0.00 53 1009.9
20260505011004 58 85 5.2 9.6 0.00 0.00 0.00 53 1010.0
20260505010004 58 81 4.3 8.7 0.00 0.00 0.00 52 1010.1
20260505005004 58 85 4.3 8.7 0.00 0.00 0.00 52 1010.2
20260505004003 59 83 5.2 11.3 0.00 0.00 0.00 52 1010.2
20260505003004 58 84 6.1 10.4 0.00 0.00 0.00 52 1010.3
20260505002004 58 83 5.2 7.8 0.00 0.00 0.00 52 1010.4
20260505001004 58 85 4.3 7.8 0.00 0.00 0.00 51 1010.5
20260505000004 58 81 5.2 7.8 0.00 0.00 0.00 52 1010.7
20260504235004 59 78 4.3 7.8 0.00 0.00 0.00 52 1010.7
20260504234004 59 79 3.5 7.0 0.00 0.00 0.00 51 1010.9
20260504233003 60 89 4.3 7.8 0.00 0.00 0.00 50 1011.0
20260504232004 60 82 4.3 8.7 0.00 0.00 0.00 50 1011.0
20260504231004 60 81 5.2 8.7 0.00 0.00 0.00 49 1011.1
20260504230004 61 88 5.2 8.7 0.00 0.00 0.00 49 1011.2
20260504225004 61 87 6.1 11.3 0.00 0.00 0.00 49 1011.2
20260504224004 61 82 7.0 10.4 0.00 0.00 0.00 49 1011.3
20260504223004 61 81 6.1 9.6 0.00 0.00 0.00 49 1011.4
20260504222004 61 82 6.1 9.6 0.00 0.00 0.00 49 1011.6
20260504221003 61 81 7.0 9.6 0.00 0.00 0.00 48 1011.6
20260504220005 62 81 7.0 10.4 0.00 0.00 0.00 48 1011.6
20260504215004 62 83 7.0 11.3 0.00 0.00 0.00 48 1011.7
20260504214004 62 83 7.0 10.4 0.00 0.00 0.00 48 1011.7
20260504213004 62 84 7.0 10.4 0.00 0.00 0.00 48 1011.7
20260504212004 62 84 7.0 11.3 0.00 0.00 0.00 47 1011.9
20260504211004 62 83 6.1 9.6 0.00 0.00 0.00 47 1012.0
20260504210004 63 82 7.0 10.4 0.00 0.00 0.00 47 1012.0
20260504205004 63 87 6.1 10.4 0.00 0.00 0.00 47 1012.0
20260504204004 63 88 5.2 9.6 0.00 0.00 0.00 47 1012.0
20260504203004 64 86 6.1 9.6 0.00 0.00 0.00 47 1012.1
20260504202004 64 80 6.1 9.6 0.00 0.00 0.00 47 1012.2
20260504201004 65 80 5.2 8.7 0.00 0.00 0.00 46 1012.3
20260504200004 65 89 4.3 8.7 0.00 0.00 0.00 44 1012.3
20260504195004 66 92 5.2 9.6 0.00 0.00 0.00 44 1012.3
20260504194004 66 94 5.2 10.4 0.00 0.00 0.00 44 1012.3
20260504193004 66 100 5.2 9.6 0.00 0.00 0.00 44 1012.3
20260504192004 66 106 4.3 9.6 0.00 0.00 0.00 44 1012.4
20260504191004 66 107 6.1 10.4 0.00 0.00 0.00 44 1012.3
20260504190004 66 109 5.2 9.6 0.00 0.00 0.00 45 1012.3
20260504185003 67 107 4.3 8.7 0.00 0.00 0.00 45 1012.2
20260504184004 67 104 5.2 8.7 0.00 0.00 0.00 45 1012.2
20260504183004 67 108 4.3 7.8 0.00 0.00 0.00 45 1012.2
20260504182004 68 103 3.5 7.8 0.00 0.00 0.00 45 1012.2
20260504181003 68 108 2.6 6.1 0.00 0.00 0.00 44 1012.2
20260504180004 69 106 4.3 7.8 0.00 0.00 0.00 44 1012.2
20260504175003 69 110 4.3 7.8 0.00 0.00 0.00 43 1012.2
20260504174003 70 110 4.3 7.8 0.00 0.00 0.00 43 1012.0
20260504173004 71 115 4.3 9.6 0.00 0.00 0.00 42 1012.1
20260504172004 71 130 5.2 9.6 0.00 0.00 0.00 39 1012.1
20260504171003 72 145 5.2 7.8 0.00 0.00 0.00 36 1012.1
20260504151004 74 161 6.1 12.2 0.00 0.00 0.00 40 1012.3
20260504141004 73 147 6.1 12.2 0.00 0.00 0.00 47 1013.0